When you browse on this site, cookies collect data to enhance your experience and personalize the content and advertising you see.
Visit our Privacy Policy to learn more. By continuing to use the site, you agree to this use of cookies and data.
  • In Österreich
  • Länderverzeichnis
  • Für 7 Tage
  • Wassertemperatur
  • Satellitenkarten
  • Wetterkarte
  • News
  • Widgets
  • user-avatar
    Anmelden

    Stündliche Wetter Rivne

    Heute, 25 April, Donnerstag

    Zeit Temperatur Niederschläge Wind Luftdruck Luftfeuchtigkeit
    00:00 +11°C° 0 mm 1 m/S 768 mmHg 55%
    01:00 +10°C° 0 mm 1 m/S 768 mmHg 56%
    02:00 +10°C° 0 mm 1 m/S 768 mmHg 59%
    03:00 +10°C° 0 mm 1 m/S 768 mmHg 60%
    04:00 +10°C° 0 mm 1 m/S 768 mmHg 60%
    05:00 +9°C° 0 mm 1 m/S 768 mmHg 61%
    06:00 +11°C° 0 mm 1 m/S 768 mmHg 56%
    07:00 +13°C° 0 mm 2 m/S 768 mmHg 52%
    08:00 +15°C° 0 mm 2 m/S 768 mmHg 47%
    09:00 +16°C° 0 mm 2 m/S 768 mmHg 43%
    10:00 +17°C° 0 mm 2 m/S 768 mmHg 39%
    11:00 +19°C° 0 mm 3 m/S 768 mmHg 36%
    12:00 +19°C° 0 mm 3 m/S 768 mmHg 36%
    13:00 +19°C° 0 mm 3 m/S 767 mmHg 36%
    14:00 +20°C° 0 mm 4 m/S 767 mmHg 36%
    15:00 +19°C° 0 mm 4 m/S 767 mmHg 38%
    16:00 +18°C° 0 mm 4 m/S 767 mmHg 40%
    17:00 +17°C° 0 mm 3 m/S 766 mmHg 43%
    18:00 +14°C° 0 mm 3 m/S 766 mmHg 48%
    19:00 +13°C° 0 mm 3 m/S 766 mmHg 53%
    20:00 +11°C° 0 mm 3 m/S 766 mmHg 59%
    21:00 +10°C° 0 mm 2 m/S 766 mmHg 61%
    22:00 +10°C° 0 mm 2 m/S 766 mmHg 63%
    23:00 +10°C° 0 mm 2 m/S 766 mmHg 66%

    Morgen, 26 April, Freitag

    Zeit Temperatur Niederschläge Wind Luftdruck Luftfeuchtigkeit
    00:00 +9°C° 0 mm 2 m/S 766 mmHg 68%
    01:00 +10°C° 0 mm 1 m/S 766 mmHg 69%
    02:00 +10°C° 0 mm 1 m/S 766 mmHg 71%
    03:00 +9°C° 0 mm 1 m/S 766 mmHg 72%
    04:00 +8°C° 0 mm 0 m/S 766 mmHg 73%
    05:00 +8°C° 0 mm 0 m/S 766 mmHg 74%
    06:00 +11°C° 0 mm 1 m/S 765 mmHg 67%
    07:00 +12°C° 0 mm 1 m/S 765 mmHg 60%
    08:00 +14°C° 0 mm 2 m/S 765 mmHg 53%
    09:00 +16°C° 0 mm 2 m/S 765 mmHg 48%
    10:00 +17°C° 0 mm 3 m/S 765 mmHg 43%
    11:00 +18°C° 0 mm 3 m/S 765 mmHg 38%
    12:00 +18°C° 0 mm 4 m/S 765 mmHg 37%
    13:00 +19°C° 0 mm 4 m/S 764 mmHg 36%
    14:00 +19°C° 0 mm 4 m/S 764 mmHg 35%
    15:00 +18°C° 0 mm 4 m/S 764 mmHg 38%
    16:00 +18°C° 0 mm 4 m/S 763 mmHg 41%
    17:00 +17°C° 0 mm 3 m/S 763 mmHg 44%
    18:00 +14°C° 0 mm 3 m/S 763 mmHg 49%
    19:00 +14°C° 0 mm 2 m/S 763 mmHg 55%
    20:00 +12°C° 0 mm 2 m/S 763 mmHg 60%
    21:00 +12°C° 0 mm 2 m/S 763 mmHg 60%
    22:00 +12°C° 0 mm 2 m/S 763 mmHg 61%
    23:00 +12°C° 0 mm 1 m/S 763 mmHg 61%

    übermorgen, 27 April, Samstag

    Zeit Temperatur Niederschläge Wind Luftdruck Luftfeuchtigkeit
    00:00 +11°C° 0 mm 1 m/S 763 mmHg 62%
    01:00 +11°C° 0 mm 1 m/S 763 mmHg 63%
    02:00 +11°C° 0 mm 1 m/S 762 mmHg 65%
    03:00 +11°C° 0 mm 1 m/S 762 mmHg 66%
    04:00 +11°C° 0 mm 1 m/S 762 mmHg 67%
    05:00 +11°C° 0 mm 1 m/S 762 mmHg 68%
    06:00 +12°C° 0 mm 1 m/S 762 mmHg 63%
    07:00 +14°C° 0 mm 2 m/S 762 mmHg 57%
    08:00 +16°C° 0 mm 3 m/S 762 mmHg 52%
    09:00 +17°C° 0 mm 3 m/S 761 mmHg 48%
    10:00 +18°C° 0 mm 3 m/S 761 mmHg 45%
    11:00 +20°C° 0 mm 3 m/S 761 mmHg 41%
    12:00 +20°C° 0 mm 4 m/S 761 mmHg 40%
    13:00 +20°C° 0 mm 4 m/S 760 mmHg 39%
    14:00 +21°C° 0 mm 5 m/S 760 mmHg 38%
    15:00 +20°C° 0 mm 4 m/S 759 mmHg 43%
    16:00 +18°C° 0 mm 4 m/S 759 mmHg 47%
    17:00 +17°C° 0 mm 4 m/S 759 mmHg 52%
    18:00 +16°C° 0 mm 3 m/S 759 mmHg 57%
    19:00 +13°C° 0 mm 3 m/S 759 mmHg 63%
    20:00 +13°C° 0 mm 2 m/S 759 mmHg 69%
    21:00 +12°C° 0 mm 2 m/S 759 mmHg 68%
    22:00 +12°C° 0 mm 2 m/S 759 mmHg 67%
    23:00 +12°C° 0 mm 2 m/S 758 mmHg 66%

    28 April, Sonntag

    Zeit Temperatur Niederschläge Wind Luftdruck Luftfeuchtigkeit
    00:00 +12°C° 0 mm 2 m/S 758 mmHg 67%
    01:00 +10°C° 0 mm 2 m/S 758 mmHg 68%
    02:00 +10°C° 0 mm 2 m/S 758 mmHg 69%
    03:00 +10°C° 0 mm 2 m/S 757 mmHg 71%
    04:00 +10°C° 0 mm 2 m/S 757 mmHg 72%
    05:00 +10°C° 0 mm 2 m/S 757 mmHg 74%
    06:00 +13°C° 0 mm 2 m/S 757 mmHg 70%
    07:00 +13°C° 0 mm 3 m/S 757 mmHg 66%
    08:00 +16°C° 0 mm 3 m/S 757 mmHg 61%
    09:00 +17°C° 0 mm 4 m/S 757 mmHg 58%
    10:00 +18°C° 0 mm 4 m/S 757 mmHg 54%
    11:00 +19°C° 0 mm 5 m/S 757 mmHg 51%
    12:00 +19°C° 0 mm 5 m/S 756 mmHg 51%
    13:00 +19°C° 0 mm 5 m/S 756 mmHg 51%
    14:00 +19°C° 0 mm 5 m/S 756 mmHg 51%
    15:00 +17°C° 0 mm 5 m/S 756 mmHg 54%
    16:00 +16°C° 0 mm 5 m/S 756 mmHg 56%
    17:00 +15°C° 0 mm 4 m/S 756 mmHg 58%
    18:00 +14°C° 0 mm 4 m/S 756 mmHg 63%
    19:00 +13°C° 0 mm 3 m/S 756 mmHg 68%
    20:00 +11°C° 0 mm 3 m/S 756 mmHg 73%
    21:00 +11°C° 0 mm 3 m/S 756 mmHg 74%
    22:00 +11°C° 0 mm 3 m/S 756 mmHg 75%
    23:00 +11°C° 0 mm 3 m/S 756 mmHg 76%

    29 April, Montag

    Zeit Temperatur Niederschläge Wind Luftdruck Luftfeuchtigkeit
    00:00 +12°C° 0 mm 2 m/S 756 mmHg 78%
    01:00 +12°C° 0 mm 2 m/S 756 mmHg 79%
    02:00 +11°C° 0 mm 1 m/S 756 mmHg 81%
    03:00 +11°C° 0 mm 1 m/S 756 mmHg 84%
    04:00 +11°C° 0 mm 1 m/S 756 mmHg 86%
    05:00 +11°C° 0 mm 1 m/S 756 mmHg 88%
    06:00 +13°C° 0 mm 1 m/S 756 mmHg 83%
    07:00 +14°C° 0 mm 1 m/S 756 mmHg 77%
    08:00 +16°C° 0 mm 2 m/S 756 mmHg 72%
    09:00 +17°C° 0 mm 2 m/S 756 mmHg 68%
    10:00 +19°C° 0 mm 3 m/S 756 mmHg 65%
    11:00 +20°C° 0 mm 4 m/S 756 mmHg 61%
    12:00 +20°C° 0.1 mm 4 m/S 756 mmHg 59%
    13:00 +21°C° 0.1 mm 4 m/S 755 mmHg 57%
    14:00 +21°C° 0.1 mm 5 m/S 755 mmHg 55%
    15:00 +20°C° 0 mm 5 m/S 755 mmHg 57%
    16:00 +19°C° 0 mm 4 m/S 755 mmHg 59%
    17:00 +18°C° 0 mm 4 m/S 754 mmHg 61%
    18:00 +17°C° 0 mm 4 m/S 755 mmHg 65%
    19:00 +16°C° 0 mm 3 m/S 755 mmHg 69%
    20:00 +13°C° 0 mm 3 m/S 755 mmHg 73%
    21:00 +13°C° 0 mm 3 m/S 755 mmHg 74%
    22:00 +13°C° 0 mm 3 m/S 755 mmHg 75%
    23:00 +13°C° 0 mm 3 m/S 755 mmHg 76%

    30 April, Dienstag

    Zeit Temperatur Niederschläge Wind Luftdruck Luftfeuchtigkeit
    00:00 +12°C° 0 mm 3 m/S 755 mmHg 77%
    01:00 +12°C° 0 mm 3 m/S 755 mmHg 79%
    02:00 +13°C° 0 mm 2 m/S 754 mmHg 81%
    03:00 +12°C° 0 mm 3 m/S 754 mmHg 81%
    04:00 +12°C° 0 mm 3 m/S 754 mmHg 81%
    05:00 +12°C° 0 mm 3 m/S 754 mmHg 81%
    06:00 +13°C° 0 mm 4 m/S 754 mmHg 78%
    07:00 +13°C° 0 mm 4 m/S 754 mmHg 75%
    08:00 +14°C° 0 mm 4 m/S 754 mmHg 72%
    09:00 +15°C° 0.1 mm 5 m/S 754 mmHg 67%
    10:00 +17°C° 0.1 mm 5 m/S 754 mmHg 62%
    11:00 +19°C° 0.1 mm 6 m/S 753 mmHg 57%
    12:00 +19°C° 0.1 mm 6 m/S 753 mmHg 57%
    13:00 +19°C° 0.1 mm 6 m/S 753 mmHg 57%
    14:00 +20°C° 0.1 mm 7 m/S 752 mmHg 58%
    15:00 +19°C° 0 mm 6 m/S 752 mmHg 61%
    16:00 +17°C° 0 mm 6 m/S 752 mmHg 64%
    17:00 +16°C° 0 mm 6 m/S 751 mmHg 68%
    18:00 +15°C° 0 mm 6 m/S 751 mmHg 72%
    19:00 +14°C° 0 mm 5 m/S 751 mmHg 77%
    20:00 +13°C° 0 mm 5 m/S 751 mmHg 81%
    21:00 +12°C° 0 mm 5 m/S 751 mmHg 82%
    22:00 +12°C° 0 mm 5 m/S 751 mmHg 84%
    23:00 +12°C° 0 mm 5 m/S 751 mmHg 85%
    Mehr zeigen